This is the latest recevied weather packets stored in our database for station/object W0SS-13. If no packets are shown the sender has not sent any weather packets the latest 10 day(s).
| Time | Temp. | Humidity | Pressure | Rain* | Wind** | Luminosity | Snow |
|---|---|---|---|---|---|---|---|
| 1777521207 | 7.78° C | 85% | 1020.4 hPa | 0 mm | - | 0 W/m² | - |
| 1777520904 | 8.33° C | 84% | 1020.3 hPa | 0 mm | - | 0 W/m² | - |
| 1777520601 | 8.33° C | 82% | 1020.6 hPa | 0 mm | - | 0 W/m² | - |
| 1777520298 | 8.89° C | 81% | 1020.6 hPa | 0 mm | - | 0 W/m² | - |
| 1777519996 | 8.89° C | 80% | 1020.6 hPa | 0 mm | - | 0 W/m² | - |
| 1777519692 | 8.89° C | 81% | 1020.5 hPa | 0 mm | - | 0 W/m² | - |
| 1777519389 | 8.89° C | 82% | 1020.4 hPa | 0 mm | - | 0 W/m² | - |
| 1777519086 | 9.44° C | 81% | 1020.2 hPa | 0 mm | - | 0 W/m² | - |
| 1777518782 | 10° C | 81% | 1020.1 hPa | 0 mm | - | 0 W/m² | - |
| 1777518478 | 10° C | 79% | 1020.3 hPa | 0 mm | - | 0 W/m² | - |
| 1777518173 | 10° C | 78% | 1020.4 hPa | 0 mm | - | 0 W/m² | - |
| 1777517870 | 10° C | 78% | 1020.3 hPa | 0 mm | - | 0 W/m² | - |
| 1777517566 | 10° C | 80% | 1020.1 hPa | 0 mm | - | 0 W/m² | - |
| 1777517264 | 10° C | 78% | 1020.4 hPa | 0 mm | - | 0 W/m² | - |
| 1777516963 | 10.56° C | 77% | 1020.1 hPa | 0 mm | - | 0 W/m² | - |
| 1777516659 | 10° C | 78% | 1019.9 hPa | 0 mm | - | 0 W/m² | - |
| 1777516355 | 10° C | 81% | 1020.1 hPa | 0 mm | - | 0 W/m² | - |
| 1777516051 | 10° C | 80% | 1019.9 hPa | 0 mm | - | 0 W/m² | - |
| 1777515748 | 10° C | 79% | 1020.1 hPa | 0 mm | - | 0 W/m² | - |
| 1777515445 | 10.56° C | 79% | 1020.2 hPa | 0 mm | - | 0 W/m² | - |
| 1777515142 | 10.56° C | 77% | 1019.8 hPa | 0 mm | - | 0 W/m² | - |
| 1777514838 | 10.56° C | 76% | 1019.7 hPa | 0 mm | - | 0 W/m² | - |
| 1777514535 | 10.56° C | 76% | 1019.6 hPa | 0 mm | - | 0 W/m² | - |
| 1777514233 | 10.56° C | 79% | 1019.7 hPa | 0 mm | - | 0 W/m² | - |
| 1777513928 | 10.56° C | 78% | 1019.5 hPa | 0 mm | - | 0 W/m² | - |
* Rain latest hour (hover to see other rain measurements)
** Current wind speed in m/s (hover to see current wind gust speed)